User: anonymous   Login
Location: S�tio Afonso Gruber
(26.1760°S, 49.5250°W)
Time: 00:47:43
(UTC+00:00)
Language:

PCSat - Orbit

View from above orbital plane
View from above orbital plane
View from above satellite
View from above satellite

Ground track
Ground track

The orbit data is extracted from the following two-line orbital elements,

1 26931U 01043C   22334.68612102  .00000092  00000-0  66727-4 0  9992
2 26931  67.0516 349.3056 0005222 269.4175  90.6328 14.30768968105346
Epoch (UTC): 30 November 2022 16:28:00
Eccentricity: 0.0005222
inclination: 67.0516°
perigee height: 785 km
apogee height: 793 km
right ascension of ascending node: 349.3056°
argument of perigee: 269.4175°
revolutions per day: 14.30768968
mean anomaly at epoch: 90.6328°
orbit number at epoch: 10534

The dashed part of the orbit path shows where the satellite is in the earth's shadow,  

DLR